Home   Weather   Westerstede   Past weeks

Flag for Germany Past Weather in Westerstede, Lower Saxony, Germany — Yesterday and Last 2 Weeks

Now
59 °F

Partly sunny.


Feels Like: 57 °F
Forecast: 59 / 70 °F
Wind: 12 mph from Southwest

Location: Wittmundhaven

Current Time: Jul 28, 2017 at 9:04:57 am

Latest Report: Jul 28, 2017 at 8:20 am


Visibility: N/A

Pressure: 29.71 "Hg

Humidity: 88%

Dew Point: 55 °F

Location of WesterstedeLocation

Past Weather in Westerstede — Graph

°F

Westerstede Temperature Yesterday

Maximum temperature yesterday: 68 °F (at 4:20 pm)
Minimum temperature yesterday: 59 °F (at 11:20 pm)
Average temperature yesterday: 64 °F

High & Low Weather Summary for the Past Weeks

 TemperatureHumidityPressure
High81 °F (Jul 19, 3:20 pm)100% (Jul 15, 1:20 am)30.21 "Hg (Jul 15, 1:20 am)
Low50 °F (Jul 14, 3:20 am)49% (Jul 14, 1:20 pm)29.62 "Hg (Jul 27, 5:20 am)
Average62 °F81%29.94 "Hg
* Reported Jul 13 7:20 am — Jul 28 7:20 am, Westerstede. Weather by CustomWeather, © 2017

Note: Actual official high and low records may vary slightly from our data, if they occured in-between our weather recording intervals... More about our weather records

Advertising

Westerstede Weather History for the Previous 24 Hours

Scroll right to see more
 ConditionsComfort  
Time TempWeatherWind HumidityBarometerVisibility
7:20 am
Fri, Jul 28
57 °FPartly sunny.8 mph88%29.71 "HgN/A
6:20 am55 °FScattered clouds.9 mph94%29.71 "HgN/A
5:20 am55 °FCool.6 mph94%29.71 "HgN/A
4:20 am55 °FCool.6 mph94%29.71 "HgN/A
3:20 am54 °FCool.3 mph94%29.71 "HgN/A
2:20 am54 °FCool.5 mph94%29.71 "HgN/A
1:20 am55 °FCool.2 mph100%29.71 "Hg5 mi
12:20 am55 °FCool.5 mph100%29.71 "Hg1 mi
11:20 pm
Thu, Jul 27
59 °FCool.3 mph94%29.71 "HgN/A
10:20 pm61 °FCool.6 mph88%29.71 "Hg4 mi
9:20 pm63 °FMild.3 mph83%29.71 "HgN/A
8:20 pm63 °FMild.3 mph77%29.68 "HgN/A
7:20 pm64 °FMild.6 mph73%29.68 "HgN/A
6:20 pm64 °FMild.6 mph73%29.68 "HgN/A
5:20 pm66 °FMild.10 mph64%29.68 "HgN/A
4:20 pm68 °FMild.8 mph60%29.68 "HgN/A
3:20 pm66 °FBroken clouds.14 mph64%29.68 "HgN/A
2:20 pm66 °FLight rain. Partly sunny.12 mph68%29.68 "HgN/A
1:20 pm64 °FLight rain. Partly sunny.8 mph78%29.68 "HgN/A
12:20 pm66 °FPartly sunny.5 mph68%29.68 "HgN/A
11:20 am66 °FBroken clouds.10 mph73%29.65 "HgN/A
10:20 am66 °FMore clouds than sun.9 mph78%29.65 "HgN/A
9:20 am66 °FMore clouds than sun.9 mph83%29.65 "HgN/A
Weather by CustomWeather, © 2017

See weather overviewHow to use our weather pages